Flag for Poland Weather past 2 weeks in Ruda Śląska, Poland

Now
61 °F

Passing clouds.


Feels Like: 61 °F
Forecast: 52 / 71 °F
Wind: 10 mph from Southwest

Location: Katowice Airport

Current Time: May 30, 2015 at 1:02:37 AM

Latest Report: May 30, 2015 at 12:30 AM


Visibility: N/A

Pressure: 29.89 "Hg

Humidity: 63%

Dew point: 48 °F

Location of Ruda ŚląskaLocation

Historic Weather in Ruda Śląska — Graph

°F

Ruda Śląska temperature yesterday

Maximum temperature yesterday: 70 °F (at 3:00 PM)
Minimum temperature yesterday: 39 °F (at 5:00 AM)
Average temperature yesterday: 57 °F

Past Weeks' High & Low Weather Summary

 TemperatureHumidityPressure
High75 °F (May 19, 1:00 PM)100% (May 20, 4:30 AM)30.24 "Hg (May 20, 4:30 AM)
Low34 °F (May 15, 3:30 AM)30% (May 18, 3:00 PM)29.74 "Hg (May 19, 5:00 AM)
Average54 °F74%29.99 "Hg
* Reported Midnight between May 14 and May 15 — Midnight between May 29 and May 30, Ruda Śląska, Weather by CustomWeather, © 2015

Note: Actual official high and low records may vary slightly from our data, if they occured in-between our weather recording intervals... More about our weather records

Advertising

Ruda Śląska weather history for previous 24 hours

 ConditionsComfort  
Time TempWeatherWind HumidityBarometerVisibility
12:00 AM
Sat, May 30
57 °FClear.7 mph72%29.89 "Hg10 mi
11:30 PM
Fri, May 29
55 °FClear.8 mph77%29.89 "Hg10 mi
10:30 PM54 °FClear.3 mph82%29.89 "Hg10 mi
10:00 PM54 °FClear.5 mph88%29.89 "Hg10 mi
9:30 PM57 °FSunny.2 mph77%29.89 "Hg10 mi
9:00 PM64 °FSunny.5 mph56%29.89 "Hg10 mi
8:30 PM64 °FSunny.8 mph56%29.86 "Hg10 mi
8:00 PM66 °FSunny.6 mph52%29.86 "Hg10 mi
7:30 PM66 °FSunny.9 mph52%29.86 "Hg10 mi
7:00 PM68 °FPassing clouds.3 mph46%29.86 "HgN/A
6:30 PM68 °FPassing clouds.3 mph46%29.89 "HgN/A
6:00 PM68 °FPassing clouds.8 mph46%29.89 "HgN/A
5:30 PM70 °FPassing clouds.9 mph43%29.89 "HgN/A
5:00 PM68 °FSunny.9 mph43%29.89 "Hg10 mi
4:30 PM70 °FSunny.12 mph43%29.89 "Hg10 mi
4:00 PM70 °FPassing clouds.12 mph40%29.89 "HgN/A
3:30 PM70 °FPassing clouds.12 mph43%29.89 "HgN/A
3:00 PM70 °FPassing clouds.8 mph46%29.92 "HgN/A
2:30 PM68 °FPassing clouds.7 mph46%29.92 "HgN/A
2:00 PM68 °FPassing clouds.7 mph40%29.92 "HgN/A
1:30 PM66 °FPassing clouds.8 mph46%29.92 "HgN/A
1:00 PM66 °FPassing clouds.9 mph43%29.95 "HgN/A
12:30 PM66 °FPassing clouds.6 mph49%29.95 "HgN/A
12:00 PM66 °FPassing clouds.7 mph43%29.95 "HgN/A
11:30 AM64 °FPassing clouds.7 mph46%29.95 "HgN/A
11:00 AM63 °FPassing clouds.8 mph52%29.95 "HgN/A
10:30 AM61 °FSunny.9 mph55%29.95 "Hg10 mi
10:00 AM61 °FPassing clouds.7 mph55%29.95 "HgN/A
9:30 AM59 °FSunny.8 mph59%29.95 "Hg10 mi
9:00 AM55 °FSunny.10 mph63%29.95 "Hg10 mi
8:30 AM55 °FSunny.9 mph63%29.95 "Hg10 mi
8:00 AM52 °FSunny.8 mph67%29.95 "Hg10 mi
7:30 AM50 °FSunny.9 mph71%29.95 "Hg10 mi
7:00 AM50 °FSunny.8 mph71%29.95 "Hg10 mi
6:30 AM46 °FClear.5 mph82%29.95 "Hg4 mi
6:00 AM45 °FFog.5 mph81%29.95 "Hg4 mi
5:30 AM43 °FFog.6 mph87%29.95 "Hg3 mi
5:00 AM39 °FFog.6 mph93%29.95 "Hg3 mi
4:30 AM41 °FFog.6 mph93%29.95 "Hg3 mi
4:00 AM41 °FFog.6 mph93%29.95 "Hg4 mi
3:30 AM43 °FPassing clouds.6 mph87%29.98 "HgN/A
3:00 AM41 °FClear.5 mph87%29.98 "Hg10 mi
2:30 AM43 °FClear.6 mph87%29.98 "Hg10 mi
2:00 AM43 °FClear.6 mph81%29.98 "Hg10 mi
1:30 AM45 °FClear.6 mph76%29.98 "Hg10 mi
Weather by CustomWeather, © 2015

See weather overviewHow to use our weather pages